CST,Max TemperatureF,Mean TemperatureF,Min TemperatureF,Max Dew PointF,MeanDew PointF,Min DewpointF,Max Humidity, Mean Humidity, Min Humidity, Max Sea Level PressureIn, Mean Sea Level PressureIn, Min Sea Level PressureIn, Max VisibilityMiles, Mean VisibilityMiles, Min VisibilityMiles, Max Wind SpeedMPH, Mean Wind SpeedMPH, Max Gust SpeedMPH,PrecipitationIn, CloudCover, Events, WindDirDegrees
2013-1-1,32,24,15,32,22,14,100,89,74,30.30,30.23,30.09,10,8,2,17,11,20,0.00,5,Snow,359
2013-1-2,37,24,12,28,21,10,93,84,70,30.31,30.25,30.16,10,10,7,13,5,16,0.00,0,,240
2013-1-3,41,29,17,28,24,16,100,83,61,30.45,30.40,30.29,10,9,4,12,3,,0.00,2,,308
2013-1-4,48,32,15,27,22,14,100,70,34,30.45,30.37,30.30,10,10,10,18,7,21,0.00,0,,201
2013-1-5,44,38,30,32,29,23,87,74,57,30.29,30.22,30.13,10,10,10,20,10,23,0.00,4,,210
2013-1-6,44,34,24,23,20,18,86,64,34,30.42,30.34,30.26,10,10,10,13,4,,0.00,0,,288
2013-1-7,50,36,23,30,25,19,86,67,40,30.33,30.21,30.08,10,10,10,17,8,22,0.00,0,,180
2013-1-8,55,42,30,43,33,27,100,72,44,30.20,30.08,30.01,10,10,0,18,9,23,0.00,2,Fog,188
2013-1-9,55,44,33,39,35,32,100,75,44,30.38,30.30,30.22,10,6,0,18,6,24,0.00,5,Fog-Rain-Snow,41
2013-1-10,53,48,42,52,46,34,100,92,54,30.21,29.93,29.79,10,6,1,16,9,21,0.00,8,Rain,119
2013-1-11,62,53,44,48,45,28,100,73,31,29.81,29.72,29.64,10,10,7,25,15,30,0.00,2,,191
2013-1-12,59,42,24,32,25,16,93,72,29,30.10,29.98,29.81,10,10,3,22,15,26,0.00,8,Rain-Snow-Thunderstorm,356
2013-1-13,30,24,17,18,13,10,79,67,47,30.39,30.25,30.08,10,10,10,21,13,24,0.00,0,,346
2013-1-14,32,23,14,14,13,10,86,67,44,30.48,30.41,30.36,10,10,10,12,5,,0.00,0,,33
2013-1-15,33,24,14,18,14,10,86,69,44,30.38,30.29,30.22,10,10,10,12,6,16,0.00,1,,15
2013-1-16,44,29,14,23,17,10,93,65,34,30.23,30.15,30.09,10,10,10,16,4,20,0.00,1,,225
2013-1-17,51,40,28,32,28,21,93,73,41,30.47,30.39,30.20,10,10,10,15,7,23,0.00,0,,359
2013-1-18,57,42,28,32,29,23,87,62,33,30.47,30.30,30.12,10,10,10,24,11,32,0.00,0,,191
2013-1-19,62,48,33,34,31,28,87,58,32,30.23,30.12,30.05,10,10,10,16,10,23,0.00,0,,221
2013-1-20,51,38,26,30,23,14,93,60,30,30.36,30.26,30.17,10,10,10,18,6,25,0.00,0,,32
2013-1-21,35,26,17,16,13,10,74,55,41,30.44,30.38,30.32,10,10,10,15,9,20,0.00,0,,36
2013-1-22,42,28,15,23,18,10,86,66,42,30.35,30.28,30.20,10,10,10,10,5,,0.00,1,,59
2013-1-23,55,37,19,34,26,16,93,71,44,30.30,30.22,30.15,10,10,7,16,3,21,0.00,0,,28
2013-1-24,35,30,26,23,18,14,69,59,51,30.37,30.28,30.14,10,10,10,22,15,26,0.00,8,,40
2013-1-25,46,38,30,27,22,19,80,57,40,30.27,30.21,30.13,10,10,10,10,5,,0.00,3,,339
2013-1-26,57,42,26,32,25,18,86,52,21,30.27,30.19,30.08,10,10,7,17,5,25,0.00,2,Rain,150
2013-1-27,62,52,42,55,47,32,100,81,61,30.10,29.92,29.81,10,9,4,32,15,38,0.00,7,Rain,178
2013-1-28,75,65,55,61,58,54,100,82,57,29.89,29.81,29.72,10,9,7,28,15,36,0.00,4,,187
2013-1-29,66,52,37,61,49,36,100,92,77,29.71,29.58,29.45,10,6,2,30,15,46,0.00,7,Rain-Thunderstorm,305
2013-1-30,37,30,24,36,25,19,93,79,64,30.05,29.86,29.56,10,10,5,31,14,38,0.00,6,,311
2013-1-31,35,26,17,27,20,9,93,75,51,30.49,30.19,29.98,10,10,1,24,8,30,0.00,2,Snow,318